Portada
METAR-TAF:

METAR-TAF

Aeropuertos :

Lamerd, Irán

latitud: 27-22-22N, longitud: 53-11-20E, altitud: 408 m

Observación

El informe se hizo hace 11 horas y 24 minutos, a las 15:00 UTC
Viento 6 kt del oeste-noroeste
Temperatura 28°C
Humedad 32%
Presión 1013 hPa
Visibilidad 10 km o más
sin nubes por debajo de 1500 m y sin presencia de cumulonimbus.

METAR: OISR 191500Z 29006KT CAVOK 28/10 Q1012 A2990 NOSIG

Hora: 05:54 (02:24 UTC)


TAF: falta

Observaciones y pronósticos meteorológicos de más de 4000 aeropuertos (mensajes METAR y TAF).

Los puntos amarillos y rojos representan las estaciones disponibles.

Ponga el ratón en el punto deseado para ver el nombre de la estación.

Haga clic para ver las observaciones y los pronósticos meteorológicos.

Para cambiar el mapa : haga clic en los botones verdes con una cruz de color negro para hacer un zoom, en el botón verde con un guión para alejar o en las flechas verdes para mapas adyacentes.


METAR-TAF: